Charlotte, NC

8:32 PM EDT on September 29, 2016 (GMT -0400)
Concord Regional

Weather History for KJQF - February, 2014

Change the Weather History Date:

Thursday, February 27, 2014

  Actual Average (KCLT) Record (KCLT)
Temperature  
Mean Temperature 42 °F 47 °F  
Max Temperature 55 °F 58 °F 82 °F (2011)
Min Temperature 28 °F 35 °F 7 °F (1963)
Degree Days  
Heating Degree Days 24 18  
Month to date heating degree days 574  
Since 1 July heating degree days 2681  
Cooling Degree Days 0 0  
Month to date cooling degree days 0  
Year to date cooling degree days 0  
Moisture  
Dew Point 13 °F    
Average Humidity 44    
Maximum Humidity 75    
Minimum Humidity 12    
Precipitation  
Precipitation 0.00 in 0.13 in 1.70 in (1929)
Month to date precipitation 3.19  
Year to date precipitation 6.60  
Snow  
Snow 0.00 in 0.10 in 2.50 in (1924)
Month to date snowfall 1.2  
Since 1 July snowfall 3.7  
Snow Depth -    
Sea Level Pressure  
Sea Level Pressure 29.90 in    
Wind  
Wind Speed 2 mph (NW)    
Max Wind Speed 12 mph    
Max Gust Speed 18 mph    
Visibility 10 miles    
Events      
T = Trace of Precipitation, MM = Missing Value Source: NWS Daily Summary

Daily Weather History Graph

Daily Weather History Graph

Search for Another Location

Airport or City:

Trip Planner

Search our weather history database for the weather conditions in past years. The results will help you decide how hot, cold, wet, or windy it might be!

Date:

Astronomy

Feb. 27, 2014 Rise Set
Actual Time 6:55 AM EST 6:16 PM EST
Civil Twilight 6:29 AM EST 6:42 PM EST
Nautical Twilight 6:00 AM EST 7:11 PM EST
Astronomical Twilight 5:30 AM EST 7:41 PM EST
Moon 5:23 AM EST (2/27) 4:42 PM EST (2/27)
Length of Visible Light 12h 12m
Length of Day
11h 21m
Waning Crescent, 4% of the Moon is Illuminated
Feb 27
Waning Crescent
Mar 1
New
Mar 8
First Quarter
Mar 16
Full
Mar 23
Last Quarter

Hourly Weather History & Observations

Time (EST) Temp. Windchill Dew Point Humidity Pressure Visibility Wind Dir Wind Speed Gust Speed Precip Events Conditions
12:15 AM 28.4 °F - 17.6 °F 64% 29.89 in 10.0 mi Calm Calm - N/A   Clear
12:35 AM 30.2 °F - 17.6 °F 60% 29.89 in 10.0 mi Calm Calm - N/A   Clear
12:55 AM 30.2 °F - 17.6 °F 60% 29.89 in 10.0 mi Calm Calm - N/A   Clear
1:15 AM 28.4 °F - 17.6 °F 64% 29.88 in 10.0 mi Calm Calm - N/A   Clear
1:35 AM 28.4 °F - 17.6 °F 64% 29.88 in 10.0 mi Calm Calm - N/A   Clear
1:55 AM 28.4 °F - 17.6 °F 64% 29.88 in 10.0 mi Calm Calm - N/A   Scattered Clouds
2:15 AM 28.4 °F - 19.4 °F 69% 29.88 in 10.0 mi Calm Calm - N/A   Mostly Cloudy
2:35 AM 28.4 °F - 21.2 °F 74% 29.87 in 10.0 mi Calm Calm - N/A   Overcast
2:55 AM 30.2 °F - 21.2 °F 69% 29.88 in 10.0 mi Calm Calm - N/A   Overcast
3:15 AM 30.2 °F - 23.0 °F 75% 29.87 in 10.0 mi Calm Calm - N/A   Overcast
3:35 AM 32.0 °F - 21.2 °F 64% 29.87 in 10.0 mi Calm Calm - N/A   Overcast
3:55 AM 32.0 °F - 21.2 °F 64% 29.86 in 10.0 mi Calm Calm - N/A   Overcast
4:15 AM 32.0 °F - 21.2 °F 64% 29.86 in 10.0 mi Calm Calm - N/A   Overcast
4:35 AM 32.0 °F - 21.2 °F 64% 29.87 in 10.0 mi Calm Calm - N/A   Overcast
4:55 AM 32.0 °F - 19.4 °F 60% 29.87 in 10.0 mi Calm Calm - N/A   Overcast
5:15 AM 32.0 °F - 19.4 °F 60% 29.87 in 10.0 mi Calm Calm - N/A   Overcast
5:35 AM 32.0 °F - 21.2 °F 64% 29.87 in 10.0 mi Calm Calm - N/A   Overcast
5:55 AM 30.2 °F - 21.2 °F 69% 29.87 in 10.0 mi Calm Calm - N/A   Scattered Clouds
6:15 AM 30.2 °F - 19.4 °F 64% 29.86 in 10.0 mi Calm Calm - N/A   Clear
6:35 AM 30.2 °F - 19.4 °F 64% 29.86 in 10.0 mi Calm Calm - N/A   Clear
6:52 AM 28.4 °F - 19.4 °F 69% 29.86 in 10.0 mi Calm Calm - N/A   Clear
7:52 AM 30.2 °F - 21.2 °F 69% 29.88 in 10.0 mi Calm Calm - N/A   Clear
8:55 AM 37.4 °F - 17.6 °F 45% 29.90 in 10.0 mi Calm Calm - N/A   Clear
9:52 AM 42.8 °F 38.6 °F 15.8 °F 34% 29.89 in 10.0 mi WNW 6.9 mph - N/A   Clear
10:55 AM 44.6 °F 38.8 °F 8.6 °F 23% 29.88 in 10.0 mi WSW 11.5 mph 17.3 mph N/A   Clear
11:55 AM 48.2 °F - 8.6 °F 20% 29.86 in 10.0 mi WSW 10.4 mph - N/A   Clear
12:55 PM 51.8 °F - 8.6 °F 18% 29.84 in 10.0 mi SW 9.2 mph - N/A   Clear
1:55 PM 53.6 °F - 6.8 °F 15% 29.82 in 10.0 mi SW 10.4 mph 18.4 mph N/A   Clear
2:55 PM 55.4 °F - 6.8 °F 14% 29.81 in 10.0 mi WSW 10.4 mph 18.4 mph N/A   Clear
3:53 PM 55.4 °F - 6.8 °F 14% 29.82 in 10.0 mi West 9.2 mph 18.4 mph N/A   Clear
4:55 PM 55.4 °F - 3.2 °F 12% 29.83 in 10.0 mi West 9.2 mph 18.4 mph N/A   Clear
5:53 PM 53.6 °F - 3.2 °F 13% 29.86 in 10.0 mi NNW 4.6 mph - N/A   Clear
6:55 PM 48.2 °F - 1.4 °F 15% 29.88 in 10.0 mi NNW 5.8 mph - N/A   Clear
7:53 PM 44.6 °F 40.2 °F 1.4 °F 17% 29.91 in 10.0 mi NNW 8.1 mph - N/A   Clear
8:15 PM 42.8 °F 38.0 °F 1.4 °F 18% 29.93 in 10.0 mi NNW 8.1 mph - N/A   Clear
8:35 PM 41.0 °F 39.0 °F 3.2 °F 21% 29.94 in 10.0 mi NNW 3.5 mph - N/A   Clear
8:53 PM 37.4 °F - 3.2 °F 24% 29.95 in 10.0 mi Calm Calm - N/A   Clear
8:55 PM 35.6 °F - 8.6 °F 33% 29.96 in 10.0 mi Calm Calm - N/A   Clear
9:15 PM 35.6 °F 30.7 °F 5.0 °F 28% 29.97 in 10.0 mi NNW 5.8 mph - N/A   Clear
9:35 PM 35.6 °F 31.7 °F 5.0 °F 28% 29.97 in 10.0 mi NNW 4.6 mph - N/A   Clear
9:53 PM 37.4 °F 33.8 °F 5.0 °F 26% 29.97 in 10.0 mi North 4.6 mph - N/A   Clear
9:55 PM 35.6 °F 31.7 °F 6.8 °F 30% 29.98 in 10.0 mi North 4.6 mph - N/A   Clear
10:15 PM 33.8 °F - 8.6 °F 35% 29.99 in 10.0 mi Calm Calm - N/A   Clear
10:35 PM 32.0 °F 28.7 °F 8.6 °F 38% 29.99 in 10.0 mi North 3.5 mph - N/A   Clear
10:51 PM 32.0 °F - 8.6 °F 38% 29.99 in 10.0 mi Calm Calm - N/A   Clear
10:55 PM 32.0 °F 28.7 °F 8.6 °F 38% 29.99 in 10.0 mi North 3.5 mph - N/A   Clear
11:15 PM 33.8 °F - 10.4 °F 38% 30.00 in 10.0 mi Calm Calm - N/A   Clear
11:35 PM 32.0 °F - 12.2 °F 44% 30.00 in 10.0 mi Calm Calm - N/A   Clear
11:55 PM 30.2 °F - 12.2 °F 47% 30.00 in 10.0 mi Calm Calm - N/A   Clear